Location: Wellington
(41.3000°S, 174.8000°E)
Time: 00:49:41
(UTC+13:00)

ISS - Visible Passes

Search period start: 16 December 2017 00:00
Search period end: 26 December 2017 00:00
Orbit: 402 x 407 km, 51.6° (Epoch: 15 December)

Date Brightness Start Highest point End Pass type
(mag) Time Alt. Az. Time Alt. Az. Time Alt. Az.
16 Dec -2.0 01:54:17 31° SSW 01:54:17 31° SSW 01:57:04 10° SE visible
16 Dec -0.8 03:29:21 10° SW 03:31:18 14° S 03:33:15 10° SSE visible
16 Dec -0.8 05:06:22 10° SSW 05:08:46 18° SSE 05:11:10 10° ESE visible
17 Dec -1.6 01:03:20 24° SE 01:03:20 24° SE 01:04:55 10° SE visible
17 Dec -0.8 02:36:31 10° SW 02:38:44 16° SSW 02:40:59 10° SSE visible
17 Dec -0.7 04:14:09 10° SSW 04:16:14 15° S 04:18:18 10° SE visible
18 Dec -1.1 00:12:09 14° SE 00:12:09 14° SE 00:12:42 10° SE visible
18 Dec -1.2 01:44:45 16° SW 01:46:13 20° SSW 01:48:47 10° SSE visible
18 Dec -0.6 03:21:46 10° SSW 03:23:38 14° S 03:25:31 10° SE visible
18 Dec -1.3 04:58:06 10° SW 05:00:59 26° SSE 05:03:51 10° E visible
19 Dec -1.7 00:53:05 25° SW 00:53:43 27° SSW 00:56:39 10° SE visible
19 Dec -0.6 02:29:08 10° SW 02:31:02 14° S 02:32:55 10° SSE visible
19 Dec -0.8 04:05:57 10° SSW 04:08:29 20° SSE 04:11:01 10° ESE visible
19 Dec -1.3 22:27:35 11° E 22:27:35 11° E 22:27:42 10° ESE visible
19 Dec -2.5 23:59:53 26° W 00:01:17 41° SSW 00:04:29 10° SE visible
20 Dec -0.6 01:36:19 10° SW 01:38:26 16° S 01:40:33 10° SSE visible
20 Dec -0.6 03:13:44 10° SSW 03:15:55 16° S 03:18:06 10° SE visible
20 Dec -2.5 04:49:47 10° SW 04:53:02 46° SSE 04:56:15 10° ENE visible
20 Dec -1.9 21:31:16 10° NNE 21:32:50 13° NE 21:34:26 10° E visible
20 Dec -3.6 23:05:36 10° WNW 23:08:54 73° SSW 23:12:15 10° SE visible
21 Dec -0.9 00:43:24 10° WSW 00:45:51 19° SSW 00:48:18 10° SSE visible
21 Dec -0.4 02:21:23 10° SSW 02:23:18 14° S 02:25:13 10° SE visible
21 Dec -1.6 03:57:36 10° SW 04:00:35 29° SSE 04:03:34 10° E visible
21 Dec -3.8 22:13:20 10° NW 22:16:36 59° NE 22:19:53 10° ESE visible
21 Dec -1.3 23:50:29 10° W 23:53:18 24° SSW 23:56:06 10° SE visible
22 Dec -0.4 01:28:48 10° SW 01:30:39 14° S 01:32:31 10° SSE visible
22 Dec -1.0 03:05:25 10° SSW 03:08:05 21° SSE 03:10:43 10° ESE visible
22 Dec -3.9 04:41:32 10° SW 04:44:53 80° NW 04:48:11 10° NE visible
22 Dec -2.1 22:57:41 10° W 23:00:48 35° SSW 23:03:55 10° SE visible
23 Dec -0.5 00:35:59 10° SW 00:38:00 15° S 00:40:02 10° SSE visible
23 Dec -0.7 02:13:11 10° SSW 02:15:29 17° SSE 02:17:47 10° ESE visible
23 Dec -3.1 03:49:14 10° SW 03:52:31 55° SSE 03:55:48 10° ENE visible
23 Dec -3.1 22:05:04 10° WNW 22:08:21 59° SSW 22:11:40 10° SE visible
23 Dec -0.7 23:43:02 10° WSW 23:45:22 17° SSW 23:47:42 10° SSE visible
24 Dec -0.5 01:20:51 10° SSW 01:22:51 15° S 01:24:50 10° SE visible
24 Dec -2.0 02:56:59 10° SW 03:00:05 34° SSE 03:03:09 10° E visible
24 Dec -3.1 04:33:31 10° WSW 04:36:32 32° NW 04:39:32 10° NNE visible
24 Dec -1.0 22:50:04 10° WSW 22:52:46 22° SSW 22:55:28 10° SE visible
25 Dec -0.4 00:28:18 10° SSW 00:30:10 14° S 00:32:01 10° SE visible
25 Dec -1.3 02:04:46 10° SW 02:07:32 23° SSE 02:10:18 10° ESE visible
25 Dec -3.9 03:40:57 10° WSW 03:44:16 63° NW 03:47:32 10° NE visible
25 Dec -1.7 21:57:12 10° W 22:00:12 31° SSW 22:03:14 10° SE visible
25 Dec -0.5 23:35:32 10° SW 23:37:28 14° S 23:39:25 10° SSE visible
